Regional Weather Roundup
Issued by NWS Newport/Morehead, NC

Current Version | Previous Version | Text Only | Print | Product List | Glossary On
Versions: 1 2 3 4 5 6 7 8 9 10 11 12 13 14 15 16 17 18 19 20 21 22 23 24 25 26 27 28 29 30 31 32 33 34 35 36 37 38 39 40 41 42 43 44 45 46 47 48 49 50
000
ASUS42 KMHX 011522
RWRMHX
WEATHER ROUNDUP FOR EASTERN NORTH CAROLINA
NATIONAL WEATHER SERVICE NEWPORT/MOREHEAD CITY NC
1100 AM EDT WED OCT 01 2014

NOTE: "FAIR" INDICATES FEW OR NO CLOUDS BELOW 12,000 FEET
WITH NO SIGNIFICANT WEATHER AND/OR OBSTRUCTIONS TO VISIBILITY

NCZ015>017-031-032-045>047-102-103-011600-
NORTH COAST

CITY           SKY/WX    TMP DP  RH WIND       PRES   REMARKS
EDENTON        SUNNY     74  63  67 N8        30.00R
ELIZABETH CITY SUNNY     74  63  68 N10       29.99R
KITTY HAWK     SUNNY     73  64  72 N10       29.97S
MANTEO         SUNNY     73  64  72 N10       29.99R

$$

NCZ045>047-081-094-103-104-011600-
CENTRAL COAST

CITY           SKY/WX    TMP DP  RH WIND       PRES   REMARKS
FRISCO         SUNNY     73  66  78 N8G18     29.97R
SWANQUARTER      N/A     75 N/A N/A N8G14     29.94S

$$

NCZ095-097-098-100-101-011600-
SOUTHERN COAST

CITY           SKY/WX    TMP DP  RH WIND       PRES   REMARKS
BEAUFORT       MOSUNNY   76  65  68 NE9       29.98R
CEDAR ISLAND     N/A     73 N/A N/A N10       30.03R
JACKSONVILLE   MOSUNNY   71  64  78 N3        30.00R
NEWPORT        NOT AVBL
PINEY ISLAND   MOSUNNY   75  65  70 N9        29.98R HAZE
WILMINGTON     SUNNY     75  61  61 N6        30.00R


$$

NCZ011>013-027>030-043-044-078>080-089-090>093-098-011600-
COASTAL PLAIN

CITY           SKY/WX    TMP DP  RH WIND       PRES   REMARKS
AHOSKIE        PTSUNNY   69  64  85 NE3       30.02S
CLINTON        SUNNY     73  64  73 CALM      30.03R
ELIZABETHTOWN  SUNNY     73  64  71 N3        30.02R
GOLDSBORO      MOSUNNY   72  67  84 CALM      30.00R
GREENVILLE     SUNNY     72  64  78 NE7       30.03R
HAVELOCK       MOSUNNY   74  65  73 NE7       30.00R
KENANSVILLE    SUNNY     73  64  74 CALM      30.02S
KINSTON        SUNNY     73  64  73 NE7       30.02R
NEW BERN       SUNNY     73  64  73 N3        30.01R
RICHLANDS      PTSUNNY   72  63  73 N6        30.01S
ROANOKE RAPIDS NOT AVBL
ROCKY MOUNT    CLOUDY    68  64  87 NW3       30.03R
WASHINGTON     SUNNY     73  63  70 NE6       30.01R
WHITEVILLE     SUNNY     74  64  70 CALM      30.01S

$$

AMZ130-135-150-152-154-156-158-170-250-252-270-ANZ085-086-088-633-658-670-011600-
MARINE OBSERVATIONS

STATION/POSITION TIME  TEMP    WIND        PRES    WAVE   SWELL
                       AIR SEA DIR/SP/G            HT/PER HT/PER
                 (UTC) (F)     (DEG/KT/KT) (MB)    (FT/S) (FT/S)
CHESAPEAKE LIGHT 1500   69      10/ 14/ 15 1016.3
BUOY 44014       1500   70 71   10/ 14/ 16 1014.1    3/ 5   2/ 7
DUCK             1500   70 72  360/ 13/ 15 1014.7
2E DUCK          1500                        N/A     3/ 5
OREGON INLET     1500   72 73  350/ 10/ 15 1015.0
BUOY 44095       1500      73                N/A     4/ 7   2/13
20E OREGON INLET NOT AVBL
HATTERAS CG      1500   71 73   10/ 16/ 18 1015.1
DIAMOND BUOY     1500   72     360/ 16/ 19 1014.0    3/ 7   2/ 7
CAPE LOOKOUT     1500   73      40/ 11/ 13 1015.2
BEAUFORT LAB     1500   74 74   40/  9/ 11 1014.7
30 SE NEW RIVER  1500   72 79   20/ 12/ 16 1014.7    3/ 5   2/13
5 SE WRIGHTSVILL 1500   67 75   30/ 10/ 12   N/A
BUOY 41002       1358   80 80   10/  8/ 10 1012.6    3/ 8   3/ 8
BUOY 41004       1500   77 81   20/ 10/ 12 1014.9    3/ 6   2/ 6

$$



USA.gov is the U.S. government's official web portal to all federal, state and local government web resources and services.